Find STARLINK-37994

NORAD ID: 799501027 Int'l Des: 2026-146D Constellation: starlink operational

Current View

Loading 3D Globe...

About STARLINK-37994

STARLINK-37994 (NORAD 799501027) is a starlink constellation satellite launched Jun 12, 2026

About STARLINK-37994

Description loading...

Upcoming Passes

Passes for default location (London). Set your location on the main map for personalized predictions.

Altitude History

Loading altitude history...

Two-Line Element Set

1 99999C 2026146D 26176.29979167 .01030800 00000-0 157830-3 0 1764
2 99999 97.2859 21.9525 0011119 280.4528 12.2950 16.03722087 19
Epoch: Jun 25, 2026 • Age: 9 hours